Location: Unspecified
(0.0000°N, 0.0000°E)
Time: 01:00:47
(UTC+00:00)

SEEDS - Pass Details

Date: 25 March 2019
Orbit: 585 x 606 km, 97.5° (Epoch: 18 April)

Event Time Altitude Azimuth Distance (km) Brightness Sun altitude
Rises 05:20:50 0° 34° (NE) 2,794 ? -11.3°
Reaches altitude 10° 05:23:21 10° 50° (NE) 1,898 ? -10.7°
Maximum altitude 05:26:35 22° 102° (ESE) 1,277 ? -9.9°
Drops below altitude 10° 05:29:50 10° 154° (SSE) 1,908 ? -9.1°
Sets 05:32:21 0° 168° (SSE) 2,813 ? -8.4°
